Weather in Aleshniki

Russia / Volgograd Oblast     50°53′55″N   45°10′10″E
temp.,
°C
wind,
m/s
gust,
m/s
humid.,
%
clouds,
%
prec.,
mm/h
press.,
hPa
HPBL,
m
23 october, sat
sat2300:00+10wsw6138379 0.0 1013372
03:00+9sw41091100 0.0 1014208
06:00+8sw5119499 0.0 1014208
09:00+11wsw6107410 0.0 1015371
12:00+16wsw673841 0.0 10151115
15:00+16sw4743100 0.0 10141228
18:00+14ssw61261100 0.1 1013526
21:00+11wsw61279100 1.1 1013780
24 october, sun
sun2400:00+11wsw61179100 0.8 1013676
03:00+8wnw498110 0.8 1015307
06:00+5w38810 0.0 1016206
09:00+7wnw586243 0.0 1017531
12:00+9w684394 0.0 10181111
15:00+9w6744100 0.0 10171321
18:00+6w3758100 0.0 1018257
21:00+5wsw3862100 0.0 1018186
25 october, mon
mon2500:00+4wnw3965100 0.0 1017276
03:00+2wnw498769 0.0 1018274
06:00+2nw7118560 0.6 1020721
09:00+2nnw896684 0.6 10221036
12:00+2nnw81063100 0.0 10241096
15:00+2nnw81060100 0.0 10251151
18:00+2n695873 0.0 10281105
21:00−1nnw3968100 0.0 1030241
26 october, tue
tue2600:00−2nnw35725 0.0 1031102
03:00−2nw34755 0.0 103273
06:00−3wnw33795 0.0 103237
09:00+1w35575 0.0 1032268
12:00+5w56391 0.0 1031744
15:00+6w67355 0.0 1030874
18:00+2wsw49475 0.0 1030155
21:00+1wsw495345 0.0 1030159
27 october, wed
wed2700:000wsw48566 0.0 1031138
03:000wsw485977 0.0 1030120
06:00−1wsw48605 0.0 1030116
09:00+3wsw58455 0.0 1030250
12:00+8wsw68315 0.0 1029596
15:00+9wsw57285 0.0 1027734
18:00+4sw49380 0.0 1027151
21:00+3sw410410 0.0 1027178